Content
SEND FEEDBACK

Daily
Averages
Monthly
Summary
Kazakhstan

KARAGANDA, KAZAKHSTAN


Home > Asia > Kazakhstan
Elevation: 1821 feet     Latitude: 49 48N     Longitude: 073 08E

WEATHER
 
SELECT A DAY
Number of Records: 146,554;   Date Range: 11/16/01 - 10/23/14
 
SHARE

PRINT THIS DATA

[ ← Previous Day ]
WEATHER ALMANAC - JANUARY 31, 2013
[ Next Day → ]
[ °C ]   °F
Weather ElementAverageHighLow
Temperature0.3 °F12.2 °F (1:30 pm)-11.2 °F (5:30 am)
Dewpoint-3.9 °F6.8 °F (1:30 pm)-14.8 °F (5:30 am)
Humidity82.5 %92 % (1:30 am)73 % (10:30 pm)
Barometer30.28 in30.30 in (4:30 am)30.21 in (11:00 pm)
Wind Speed6.5 mph11.2 mph (8:00 pm)
Weather ElementAverage
Visibility6.2 mi
Wind DirectionE (90.2 °)

Weather ElementTotal
Precipitation---
Heating Degree Days64.5 (Base 65)
Averaged from 47 records on January 31, 2013
WEATHER CONDITIONS BREAKOUT
WIND DIRECTION BREAKOUT
WEATHER BY HOUR - JANUARY 31, 2013
[ °C ]   °F
Local TimeTemperatureDewpointHumidityBarometerVisibilityWind DirectionWind SpeedGust SpeedPrecipitationEventsConditions
12:30 AM3.2 °F-0.4 °F85 %30.27 in6.2 miSE (130°)4.5 mphMostly Cloudy
1:00 AM1.4 °F-2.2 °F85 %30.27 in6.2 miSE (130°)4.5 mphMostly Cloudy
1:30 AM-0.4 °F-2.2 °F92 %30.27 in6.2 miVariable2.2 mphOvercast
2:00 AM-2.2 °F-5.8 °F85 %30.27 in6.2 miENE (60°)4.5 mphScattered Clouds
2:30 AM-4.0 °F-7.6 °F85 %30.27 in6.2 miESE (110°)6.7 mphPartly Cloudy
3:00 AM-5.8 °F-9.4 °F84 %30.27 inEast (80°)4.5 mphClear
3:30 AM-7.6 °F-11.2 °F84 %30.27 inEast (80°)6.7 mphClear
4:00 AM-9.4 °F-13.0 °F84 %30.27 inESE (120°)4.5 mphClear
4:30 AM-9.4 °F-13.0 °F84 %30.30 inENE (60°)4.5 mphClear
5:00 AM-9.4 °F-13.0 °F84 %30.30 inENE (70°)6.7 mphClear
5:30 AM-11.2 °F-14.8 °F84 %30.30 inEast (80°)6.7 mphClear
6:00 AM-9.4 °F-13.0 °F84 %30.30 inEast (90°)6.7 mphClear
6:30 AM-9.4 °F-13.0 °F84 %30.30 inEast (100°)6.7 mphClear
7:00 AM-9.4 °F-13.0 °F84 %30.30 inESE (110°)4.5 mphClear
7:30 AM-9.4 °F-13.0 °F84 %30.30 inEast (90°)6.7 mphClear
8:00 AM-11.2 °F-14.8 °F84 %30.30 inENE (70°)6.7 mphClear
8:30 AM-11.2 °F-13.0 °F92 %30.27 inENE (60°)6.7 mphClear
9:00 AM-11.2 °F-14.8 °F84 %30.30 inEast (100°)4.5 mphClear
9:30 AM-7.6 °F-11.2 °F84 %30.30 inEast (90°)6.7 mphClear
10:00 AM-7.6 °F-11.2 °F84 %30.30 inEast (100°)6.7 mphClear
10:30 AM-7.6 °F-11.2 °F84 %30.30 inEast (90°)8.9 mphClear
11:00 AM-2.2 °F-7.6 °F78 %30.30 inEast (100°)6.7 mphClear
11:30 AM-0.4 °F-5.8 °F78 %30.30 inESE (110°)6.7 mphClear
12:00 PM1.4 °F-4.0 °F78 %30.30 inENE (60°)6.7 mphClear
12:30 PM5.0 °F-0.4 °F78 %30.30 inEast (80°)4.5 mphClear
1:00 PM8.6 °F3.2 °F79 %30.30 inENE (60°)6.7 mphClear
1:30 PM12.2 °F6.8 °F79 %30.30 inEast (90°)6.7 mphClear
2:00 PM10.4 °F6.8 °F85 %30.30 inSE (130°)6.7 mphClear
2:30 PM12.2 °F6.8 °F79 %30.30 inEast (100°)8.9 mphClear
3:00 PM12.2 °F6.8 °F79 %30.30 inEast (100°)8.9 mphClear
3:30 PM12.2 °F6.8 °F79 %30.30 inENE (70°)4.5 mphClear
4:00 PM12.2 °F6.8 °F79 %30.30 inNE (50°)4.5 mphClear
4:30 PM10.4 °F6.8 °F85 %30.30 inENE (70°)8.9 mphClear
5:00 PM8.6 °F5.0 °F85 %30.30 inEast (90°)8.9 mphClear
5:30 PM5.0 °F1.4 °F85 %30.27 inEast (90°)6.7 mphClear
6:00 PM5.0 °F1.4 °F85 %30.27 inEast (100°)4.5 mphClear
6:30 PM5.0 °F1.4 °F85 %30.27 inEast (90°)6.7 mphClear
7:00 PM3.2 °F-0.4 °F85 %30.27 inVariable2.2 mphClear
7:30 PM3.2 °F-2.2 °F78 %30.27 inESE (120°)8.9 mphClear
8:00 PM1.4 °F-2.2 °F85 %30.27 inESE (120°)11.2 mphClear
8:30 PM1.4 °F-2.2 °F85 %30.24 inEast (100°)11.2 mphClear
9:00 PM3.2 °F-2.2 °F78 %30.24 inEast (90°)6.7 mphClear
9:30 PM3.2 °F-2.2 °F78 %30.24 inESE (110°)4.5 mphClear
10:00 PM6.8 °F3.2 °F85 %30.24 inSE (130°)11.2 mphClear
10:30 PM8.6 °F1.4 °F73 %30.24 inSE (140°)6.7 mphClear
11:00 PM10.4 °F3.2 °F73 %30.21 inESE (110°)8.9 mphClear
11:30 PM3.2 °F-2.2 °F78 %30.21 inESE (110°)6.7 mphClear
Hourly data recorded from UAKK, located miles away from Karaganda, Kazakhstan







STORIES FROM OUR PARTNERS